DECAYED

STARLINK-1035, 44740 (Decayed)

Orbit data source: Space-Track

STARLINK-1035, 44740 was a payload satellite owned by SpaceX/Seattle (US) in LEO that was launched on Mon, 11 Nov 2019 UTC via an FALCON 9 launch vehicle from the Air Force Eastern Test Range (AFETR). Payload-class satellites include a variety of spacecraft equipped with specific instruments for various scientific and technological missions. These include communications satellites like Starlink; space stations such as the ISS; scientific satellites like the Hubble; Earth observation satellites from companies like Planet Labs, Umbra, and HawkEye 360; GPS; miniature CubeSats for education and research; and military/defense satellites.

Not visible in the next 10 days
Identifier
44740, 2019-074AD
Orbit
Decayed
Last TLE update
3 months ago
Origin
Manufacturer
SpaceX/Seattle
Mission
Decayed Commercial Communications
Bus & Motor
STARLINK, Unknown motor
Mass
260 kg wet, ~248 kg dry
Launch date (UTC)
2019-11-11 (6 years ago)
Launch vehicle
FALCON 9
Launch site
Air Force Eastern Test Range (AFETR)
Object type
Payload
Rocket body
Debris
Shape & HBR
Box + 1 Pan, 8.86 m
Radar Cross Section
13.562 m², Large (>1 m²)

Expand to show TLE details & history

TLE from 3 months ago
0 STARLINK-1035
1 44740U 19074AD  25102.27679569  .20108188  12607-4  37061-3 0  9999
2 44740  53.0254 202.2679 0002605 326.6177 131.4675 16.47505828299411
Epoch: 2025-04-12T06:38Z
TLE epoch observation values (Epoch: 2025-04-12T06:38:35.147Z)
Latitude
52.42981°
Longitude
5.23885°
Altitude
153.34 km
Speed
7.82 km/s
True Right ascension
20h 22m 25s
True Declination
52° 14' 53"
Sunlit
Object was in daylight at epoch
Visualization orbit readout
Visualization observer readout
Orbital elements
Apogee altitude
147.903 km
Perigee altitude
144.504 km
Semi-major axis
6,524.341 km
Eccentricity
0.00026
Inclination
53.0254°
RAAN
202.2679°
Arg. of periapsis
326.6177°
True anomaly
Unknown
Mean anomaly
131.4675°
Eccentric anomaly
Unknown
Mean motion
4.11849 °/min
Orbital period
87.41 mins
BSTAR
0.00037061
Loading maneuver chart data...
Loading SW <> Apogee altitude chart data...

STARLINK-1035 Visibility

Observer location: undefined°, undefined°

This satellite is decayed
Span
Click to sort rows by Start time (UTC) header in descending order
Start Az.
Max El. time (UTC)
Max El. Az.
Max El.
End time (UTC)
End Az.
|